Regional Weather Roundup
Issued by NWS Burlington, VT

Home | Current Version | Previous Version | Text Only | Print | Product List | Glossary On
Versions: 1 2 3 4 5 6 7 8 9 10 11 12 13 14 15 16 17 18 19 20 21 22 23 24 25 26 27 28 29 30 31 32 33 34 35 36 37 38 39 40 41 42 43 44 45 46 47 48 49 50
000
ASUS41 KBTV 050930
RWRBTV
VERMONT REGIONAL WEATHER ROUNDUP
NATIONAL WEATHER SERVICE BURLINGTON VT
500 AM EDT THU MAY 05 2016

NOTE: "FAIR" INDICATES FEW OR NO CLOUDS BELOW 12,000 FEET WITH NO
SIGNIFICANT WEATHER AND/OR OBSTRUCTIONS TO VISIBILITY.

* THESE REPORTS ARE NOT UNDER NWS QUALITY CONTROL AND/OR DO NOT
  REPORT WEATHER SUCH AS PRECIPITATION AND FOG.

VTZ001>019-051000-
_____VERMONT_____


CITY           SKY/WX    TMP DP  RH WIND       PRES   REMARKS
BURLINGTON     CLOUDY    47  43  86 CALM      29.80S
MONTPELIER     CLOUDY    43  42  97 CALM      29.83S FOG
MORRISVILLE    CLOUDY    44  42  93 N3        29.81F
ST. JOHNSBURY*   N/A     45  42  89 MISG      29.78F
LYNDONVILLE*   CLOUDY    44  39  82 N8        29.81S
MIDDLEBURY*    CLOUDY    45  45 100 CALM      29.78F
RUTLAND*       CLOUDY    45  39  79 SE7       29.79S
SPRINGFIELD    CLOUDY    43  41  93 CALM      29.80F
HIGHGATE*      CLOUDY    40  40  99 CALM      29.82R
NEWPORT*       CLOUDY    43  41  93 N3        29.82S
BENNINGTON     CLOUDY    46  39  76 N6        29.75R
MT. MANSFIELD*   N/A     34 N/A N/A SW10        N/A  WCI  26

_____LAKE CHAMPLAIN_____


CITY           SKY/WX    TMP DP  RH WIND       PRES   REMARKS
COLCHESTER RF*   N/A     45  45 100 NW9         N/A
DIAMOND ISL*     N/A     46  46 100 NW6         N/A

$$

NYZ007-026>031-035-052-083-087-051000-
_____NORTHERN NEW YORK_____


CITY           SKY/WX    TMP DP  RH WIND       PRES   REMARKS
PLATTSBURGH    CLOUDY    44  43  96 CALM      29.81S
SARANAC LAKE   CLOUDY    38  36  92 NE3       29.77R
MASSENA        CLOUDY    48  43  82 NE10      29.82R
OGDENSBURG*    CLOUDY    48  46  93 E5        29.80S
POTSDAM*       MOCLDY    45  45 100 NE5       29.81
WATERTOWN      CLOUDY    47  45  93 CALM      29.78R
FT DRUM        MOCLDY    44  42  94 SE7       29.77R
ALBANY         CLOUDY    47  44  90 N6        29.76S
GLENS FALLS    CLOUDY    48  41  76 NE7       29.77F

$$
NHZ002-005-011-051000-
_____NEW HAMPSHIRE_____


CITY           SKY/WX    TMP DP  RH WIND       PRES   REMARKS
LEBANON        CLOUDY    44  42  93 CALM      29.79F
KEENE          CLOUDY    43  39  87 N7        29.79R
MT WASHINGTON  FOG       32  32 100 NE12        N/A  VSB 1/16WCI  23
PLYMOUTH       CLOUDY    43  42  96 CALM      29.79S
WHITEFIELD     CLOUDY    45  37  73 E9        29.79S

$$

_____REGIONAL QUEBEC LOCATIONS_____


CITY           SKY/WX    TMP DP  RH WIND       PRES   REMARKS
MONTREAL       PTCLDY    43  39  87 N13       29.84R
QUEBEC CITY    MOCLDY    41  36  81 NE7       29.91R
SHERBROOKE     CLOUDY    45  41  87 NE6       29.82S

_____REGIONAL ONTARIO LOCATIONS_____


CITY           SKY/WX    TMP DP  RH WIND       PRES   REMARKS
OTTAWA         MOCLDY    48  43  81 NE13      29.83R

______KEY______
VSB  - VISIBILITY IN MILES
WCI  - WIND CHILL INDEX
HX   - HEAT INDEX
$$
NNNN




USA.gov is the U.S. government's official web portal to all federal, state and local government web resources and services.